CDT,Max TemperatureF,Mean TemperatureF,Min TemperatureF,Max Dew PointF,MeanDew PointF,Min DewpointF,Max Humidity, Mean Humidity, Min Humidity, Max Sea Level PressureIn, Mean Sea Level PressureIn, Min Sea Level PressureIn, Max VisibilityMiles, Mean VisibilityMiles, Min VisibilityMiles, Max Wind SpeedMPH, Mean Wind SpeedMPH, Max Gust SpeedMPH,PrecipitationIn, CloudCover, Events, WindDirDegrees
2013-4-1,41,34,27,23,19,15,75,57,38,30.27,30.18,30.02,10,10,10,22,12,31,0.00,1,,315
2013-4-2,47,34,20,21,16,11,84,55,25,30.36,30.31,30.27,10,10,10,21,8,28,0.00,0,,299
2013-4-3,50,36,21,21,15,10,81,51,21,30.46,30.38,30.30,10,10,10,13,4,18,0.00,0,,108
2013-4-4,61,43,25,37,24,17,69,47,25,30.29,30.13,30.01,10,10,10,15,5,18,0.00,0,,281
2013-4-5,57,46,34,32,25,20,70,47,24,30.23,30.13,30.04,10,10,10,21,10,30,0.00,1,,63
2013-4-6,72,56,40,49,35,20,80,54,28,30.02,29.76,29.59,10,10,4,32,16,43,0.03,4,Rain-Thunderstorm,196
2013-4-7,66,53,39,43,38,35,85,61,36,29.95,29.86,29.74,10,9,5,20,7,25,0.00,1,,326
2013-4-8,73,61,48,55,50,41,96,71,46,29.86,29.69,29.50,10,7,1,30,10,37,0.78,5,Rain,149
2013-4-9,78,61,44,60,51,40,93,76,58,29.89,29.82,29.74,10,7,3,24,13,31,0.01,7,Rain,71
2013-4-10,44,42,39,40,38,36,93,88,83,30.03,29.86,29.72,10,7,1,31,14,38,1.45,8,Rain-Thunderstorm,52
2013-4-11,48,43,37,45,40,30,100,88,76,29.70,29.63,29.59,10,6,2,21,11,26,0.10,8,Rain,204
2013-4-12,42,39,35,36,32,30,92,79,65,29.92,29.73,29.59,10,9,2,24,14,31,0.00,8,,266
2013-4-13,51,43,34,35,29,26,82,64,46,29.99,29.95,29.91,10,10,10,24,13,31,T,7,Rain,277
2013-4-14,76,59,41,55,44,34,82,58,33,29.95,29.69,29.52,10,9,2,26,16,33,0.24,5,Rain-Thunderstorm,141
2013-4-15,64,53,41,53,46,35,96,69,42,30.02,29.80,29.66,10,10,2,23,7,29,0.06,6,Rain-Thunderstorm,277
2013-4-16,52,44,36,37,33,30,82,66,50,30.22,30.15,30.01,10,10,10,22,7,28,0.00,5,,2
2013-4-17,57,50,42,54,42,34,100,83,65,30.24,29.98,29.69,10,6,1,30,16,40,2.62,8,Rain-Thunderstorm,75
2013-4-18,63,50,37,61,49,30,100,88,76,29.76,29.57,29.39,10,7,2,39,15,62,1.49,8,Rain-Thunderstorm,166
2013-4-19,39,37,34,31,28,25,82,71,59,30.03,29.70,29.57,10,10,9,31,21,40,T,8,Rain-Snow,273
2013-4-20,48,39,29,29,25,21,85,61,36,30.37,30.25,30.05,10,10,10,15,7,18,0.00,1,,282
2013-4-21,60,47,33,40,33,27,75,60,44,30.44,30.33,30.23,10,10,10,24,15,31,0.00,4,,140
2013-4-22,70,58,45,49,37,34,83,57,30,30.23,30.12,29.99,10,10,8,22,9,26,0.03,5,Rain,167
2013-4-23,52,45,38,50,38,31,93,82,70,30.04,30.00,29.94,10,9,5,22,9,26,0.39,8,Rain,324
2013-4-24,53,44,35,31,28,23,76,54,32,30.12,30.09,30.03,10,10,10,23,12,32,T,4,,273
2013-4-25,55,46,36,37,28,20,85,56,26,30.30,30.22,30.10,10,10,10,26,12,32,0.01,2,,272
2013-4-26,68,55,41,45,40,31,67,55,42,30.29,30.24,30.20,10,10,10,29,12,36,0.00,1,,187
2013-4-27,66,53,39,47,44,38,96,72,48,30.25,30.14,29.99,10,10,8,16,5,22,0.00,4,,145
2013-4-28,72,58,44,50,47,44,93,66,38,29.98,29.88,29.81,10,9,7,14,4,21,0.00,2,,244
2013-4-29,80,65,49,58,53,47,89,67,45,29.87,29.77,29.66,10,10,10,23,11,32,0.00,0,,173
2013-4-30,86,74,62,59,53,46,78,52,25,29.88,29.75,29.68,10,10,10,28,14,36,0.00,0,,194